Date String (YYYY-MM-DD hh:mm:ss) UTC,Instrument flags,Ambient pressure (hPa),Sample flow (lpm),Bypass flow (lpm),Sample temperature (°C),Ambient temperature (°C),ASC tube jacket temperature (°C),LED temperature (°C),Box temperature (°C),Sample RH (%),Span deviation,Mass concentration (μg/m³),Mass concentration (μg/m³),Mass concentration (μg/m³)
DateTimeUTC,F1_M11,P_M11,Q1_M11,Q2_M11,T1_M11,T2_M11,T3_M11,T4_M11,T5_M11,U1_M11,ZSPAN_M11,X0_M11,X2_M11,X1_M11
2022-01-13 10:00:00,,0831.6,5.01,0.00,25.8,25.0,00.0,34.8,27.6,09.4,0000.0,0000.03,0000.02,0000.00
2022-01-13 10:01:00,,0831.5,5.00,0.00,25.8,25.0,00.0,34.8,27.6,09.3,0000.0,0000.03,0000.02,0000.00
2022-01-13 10:02:00,,0831.5,4.99,0.00,25.8,25.0,00.0,34.8,27.6,09.3,0000.0,0000.13,0000.02,0000.00
2022-01-13 10:03:00,,0831.4,5.02,0.00,25.8,25.0,00.0,34.8,27.6,09.3,0000.0,0000.14,0000.02,0000.00
2022-01-13 10:04:00,,0831.4,4.98,0.00,25.8,25.0,00.0,34.8,27.6,09.2,0000.0,0000.14,0000.02,0000.00
2022-01-13 10:05:00,,0831.4,5.01,0.00,25.8,25.0,00.0,34.8,27.6,09.4,0000.0,0000.14,0000.02,0000.00
2022-01-13 10:06:00,,0831.4,5.01,0.00,25.8,25.0,00.0,34.8,27.6,09.2,0000.0,0000.14,0000.02,0000.00
2022-01-13 10:07:00,,0831.4,4.99,0.00,25.8,25.0,00.0,34.8,27.6,09.2,0000.0,0000.13,0000.01,0000.00
2022-01-13 10:08:00,,0831.4,5.00,0.00,25.8,25.0,00.0,34.8,27.6,09.4,0000.0,0000.11,0000.01,0000.00
2022-01-13 10:09:00,,0831.4,5.01,0.00,25.8,25.0,00.0,34.8,27.6,09.4,0000.0,0000.11,0000.01,0000.00
2022-01-13 10:10:00,,0831.4,4.99,0.00,25.8,25.0,00.0,34.8,27.6,09.4,0000.0,0000.11,0000.01,0000.00
2022-01-13 10:11:00,,0831.4,5.01,0.00,25.8,25.0,00.0,34.8,27.6,09.4,0000.0,0000.11,0000.01,0000.00
2022-01-13 10:12:00,,0831.4,5.01,0.00,25.8,25.0,00.0,34.8,27.5,09.5,0000.0,0000.24,0000.01,0000.00
2022-01-13 10:13:00,,0831.5,4.99,0.00,25.8,25.0,00.0,34.8,27.5,09.5,0000.0,0000.32,0000.00,0000.00
2022-01-13 10:14:00,,0831.4,5.01,0.00,25.8,24.9,00.0,34.8,27.5,09.5,0000.0,0000.32,0000.00,0000.00
2022-01-13 10:15:00,,0831.4,4.99,0.00,25.7,24.9,00.0,34.8,27.5,09.6,0000.0,0000.32,0000.00,0000.00
2022-01-13 10:16:00,,0831.2,5.01,0.00,25.7,24.9,00.0,34.8,27.5,09.7,0000.0,0000.32,0000.00,0000.00
2022-01-13 10:17:00,,0831.1,5.00,0.00,25.7,24.9,00.0,34.8,27.5,09.7,0000.0,0000.32,0000.00,0000.00
2022-01-13 10:18:00,,0831.3,4.99,0.00,25.7,24.8,00.0,34.7,27.4,09.7,0000.0,0000.32,0000.00,0000.00
2022-01-13 10:19:00,,0831.2,5.00,0.00,25.7,24.8,00.0,34.7,27.4,09.9,0000.0,0000.32,0000.00,0000.00
2022-01-13 10:20:00,,0831.3,5.00,0.00,25.7,24.9,00.0,34.7,27.4,09.7,0000.0,0000.32,0000.00,0000.00
2022-01-13 10:21:00,,0831.2,5.02,0.00,25.7,24.9,00.0,34.7,27.5,09.6,0000.0,0000.73,0000.00,0000.00
2022-01-13 10:22:00,,0831.2,4.99,0.00,25.7,24.9,00.0,34.7,27.5,09.6,0000.0,0001.05,0000.00,0000.00
2022-01-13 10:23:00,,0831.2,5.01,0.00,25.7,24.9,00.0,34.7,27.5,09.7,0000.0,0000.93,0000.00,0000.00
2022-01-13 10:24:00,,0831.2,5.01,0.00,25.7,24.9,00.0,34.7,27.5,09.7,0000.0,0000.73,0000.01,0000.00
2022-01-13 10:25:00,,0831.2,5.00,0.00,25.7,24.9,00.0,34.7,27.5,09.9,0000.0,0000.73,0000.01,0000.00
2022-01-13 10:26:00,,0831.2,4.99,0.00,25.7,24.9,00.0,34.7,27.4,10.0,0000.0,0000.74,0000.01,0000.00
2022-01-13 10:27:00,,0831.1,5.01,0.00,25.7,24.9,00.0,34.7,27.4,10.1,0000.0,0000.75,0000.01,0000.00
2022-01-13 10:28:00,,0831.1,4.98,0.00,25.7,24.9,00.0,34.7,27.5,10.1,0000.0,0000.75,0000.01,0000.00
2022-01-13 10:29:00,,0831.2,5.00,0.00,25.7,24.9,00.0,34.7,27.5,10.1,0000.0,0000.77,0000.02,0000.00
2022-01-13 10:30:00,,0831.2,5.01,0.00,25.7,24.9,00.0,34.7,27.5,10.0,0000.0,0000.79,0000.03,0000.00
2022-01-13 10:31:00,,0831.2,4.98,0.00,25.7,24.9,00.0,34.7,27.5,09.9,0000.0,0000.81,0000.03,0000.00
2022-01-13 10:32:00,,0831.2,5.00,0.00,25.7,24.9,00.0,34.7,27.5,09.8,0000.0,0000.48,0000.03,0000.00
2022-01-13 10:33:00,,0831.2,5.01,0.00,25.7,24.9,00.0,34.7,27.5,09.6,0000.0,0000.09,0000.03,0000.00
2022-01-13 10:34:00,,0831.2,5.00,0.00,25.7,24.9,00.0,34.7,27.5,09.5,0000.0,0001.25,0000.03,0000.00
2022-01-13 10:35:00,,0831.2,4.98,0.00,25.7,24.9,00.0,34.7,27.5,09.4,0000.0,0001.87,0000.03,0000.00
2022-01-13 10:36:00,,0831.2,5.01,0.00,25.7,25.0,00.0,34.7,27.5,09.3,0000.0,0002.51,0000.03,0000.00
2022-01-13 10:37:00,,0831.2,5.00,0.00,25.7,25.0,00.0,34.7,27.5,09.4,0000.0,0003.77,0000.03,0000.00
2022-01-13 10:38:00,,0831.2,5.01,0.00,25.7,25.0,00.0,34.7,27.5,09.5,0000.0,0003.84,0000.02,0000.00
2022-01-13 10:39:00,,0831.2,4.99,0.00,25.8,25.0,00.0,34.7,27.5,09.4,0000.0,0004.16,0000.03,0000.00
2022-01-13 10:40:00,,0831.1,5.01,0.00,25.8,25.0,00.0,34.7,27.5,09.3,0000.0,0004.20,0000.04,0000.00
2022-01-13 10:41:00,,0831.1,5.00,0.00,25.8,25.0,00.0,34.7,27.5,09.5,0000.0,0004.17,0000.03,0000.00
2022-01-13 10:42:00,,0831.2,5.00,0.00,25.8,25.0,00.0,34.7,27.5,09.4,0000.0,0004.17,0000.04,0000.00
2022-01-13 10:43:00,,0831.1,5.00,0.00,25.8,25.0,00.0,34.7,27.5,09.6,0000.0,0004.16,0000.03,0000.00
2022-01-13 10:44:00,,0831.1,5.01,0.00,25.8,25.0,00.0,34.7,27.5,09.6,0000.0,0004.16,0000.03,0000.00
2022-01-13 10:45:00,,0831.1,4.99,0.00,25.8,25.0,00.0,34.7,27.6,09.6,0000.0,0003.88,0000.06,0000.01
2022-01-13 10:46:00,,0831.1,5.01,0.00,25.8,25.0,00.0,34.8,27.6,09.7,0000.0,0003.56,0000.09,0000.01
2022-01-13 10:47:00,,0831.0,5.01,0.00,25.8,25.0,00.0,34.8,27.6,09.7,0000.0,0003.08,0000.09,0000.01
2022-01-13 10:48:00,,0831.0,5.00,0.00,25.8,25.0,00.0,34.8,27.6,09.5,0000.0,0001.81,0000.10,0000.01
2022-01-13 10:49:00,,0831.0,4.99,0.00,25.8,25.0,00.0,34.8,27.6,09.5,0000.0,0001.84,0000.11,0000.01
2022-01-13 10:50:00,,0831.1,5.01,0.00,25.8,25.0,00.0,34.8,27.6,09.3,0000.0,0001.52,0000.10,0000.01
2022-01-13 10:51:00,,0831.1,5.00,0.00,25.8,25.1,00.0,34.8,27.6,09.2,0000.0,0001.48,0000.09,0000.01
2022-01-13 10:52:00,,0831.1,4.99,0.00,25.8,25.1,00.0,34.8,27.6,09.2,0000.0,0001.47,0000.09,0000.01
2022-01-13 10:53:00,,0831.2,5.00,0.00,25.8,25.1,00.0,34.8,27.6,09.2,0000.0,0001.46,0000.08,0000.01
2022-01-13 10:54:00,,0831.2,4.99,0.00,25.8,25.1,00.0,34.8,27.6,09.2,0000.0,0001.46,0000.08,0000.01
2022-01-13 10:55:00,,0831.2,5.01,0.00,25.8,25.1,00.0,34.8,27.6,09.4,0000.0,0001.46,0000.08,0000.01
2022-01-13 10:56:00,,0831.2,4.98,0.00,25.8,25.1,00.0,34.8,27.6,09.4,0000.0,0000.73,0000.05,0000.01
2022-01-13 10:57:00,,0831.2,5.00,0.00,25.8,25.0,00.0,34.8,27.6,09.4,0000.0,0000.16,0000.03,0000.00
2022-01-13 10:58:00,,0831.2,4.99,0.00,25.8,25.1,00.0,34.8,27.6,09.3,0000.0,0000.09,0000.02,0000.00
2022-01-13 10:59:00,,0831.2,5.02,0.00,25.8,25.1,00.0,34.8,27.6,09.3,0000.0,0000.05,0000.02,0000.00
